SJ-6C

Last updated on Wed Apr 24 2024 00:03:20 GMT+0000 (Coordinated Universal Time)

1 29505U 06046A 24114.55567510 .00011056 00000+0 83550-3 0 9999 2 29505 97.7262 141.7972 0003093 308.1319 51.9626 15.02538679953829

Satellite not in orbit

SJ-6C